TimeEDT,TemperatureF,Dew PointF,Humidity,Sea Level PressureIn,VisibilityMPH,Wind Direction,Wind SpeedMPH,Gust SpeedMPH,PrecipitationIn,Events,Conditions,WindDirDegrees,DateUTC
1:56 AM,46.0,30.0,54,30.33,10.0,Calm,Calm,-,N/A,,Clear,0,2013-05-01 05:56:00
2:56 AM,39.9,30.0,68,30.34,10.0,North,4.6,-,N/A,,Clear,350,2013-05-01 06:56:00
3:56 AM,41.0,30.9,67,30.35,10.0,North,4.6,-,N/A,,Clear,10,2013-05-01 07:56:00
4:56 AM,43.0,36.0,76,30.37,10.0,NNE,4.6,-,N/A,,Clear,20,2013-05-01 08:56:00
5:56 AM,42.1,37.0,82,30.38,10.0,NE,8.1,-,N/A,,Partly Cloudy,40,2013-05-01 09:56:00
6:56 AM,46.9,39.0,74,30.40,10.0,NE,5.8,-,N/A,,Partly Cloudy,50,2013-05-01 10:56:00
7:56 AM,52.0,33.1,49,30.42,10.0,ENE,8.1,-,N/A,,Partly Cloudy,60,2013-05-01 11:56:00
8:56 AM,55.9,34.0,44,30.42,10.0,ENE,6.9,-,N/A,,Clear,60,2013-05-01 12:56:00
9:56 AM,59.0,37.9,46,30.43,10.0,ESE,4.6,-,N/A,,Partly Cloudy,110,2013-05-01 13:56:00
11:56 AM,64.0,41.0,43,30.43,10.0,ESE,15.0,20.7,N/A,,Partly Cloudy,110,2013-05-01 15:56:00
12:56 PM,63.0,43.0,48,30.43,10.0,SE,12.7,20.7,N/A,,Partly Cloudy,130,2013-05-01 16:56:00
1:56 PM,63.0,44.1,50,30.43,10.0,SE,15.0,-,N/A,,Partly Cloudy,140,2013-05-01 17:56:00
2:56 PM,62.1,46.0,56,30.44,10.0,SE,13.8,-,N/A,,Partly Cloudy,130,2013-05-01 18:56:00
3:56 PM,63.0,43.0,48,30.43,10.0,SE,15.0,20.7,N/A,,Partly Cloudy,130,2013-05-01 19:56:00
4:56 PM,59.0,44.1,58,30.44,10.0,SSE,11.5,-,N/A,,Partly Cloudy,150,2013-05-01 20:56:00
5:56 PM,57.0,43.0,59,30.44,10.0,SE,11.5,-,N/A,,Partly Cloudy,130,2013-05-01 21:56:00
6:56 PM,55.9,42.1,60,30.45,10.0,ESE,5.8,-,N/A,,Partly Cloudy,120,2013-05-01 22:56:00
7:56 PM,53.1,39.9,61,30.46,10.0,SE,4.6,-,N/A,,Partly Cloudy,140,2013-05-01 23:56:00
8:56 PM,50.0,39.0,66,30.47,10.0,Calm,Calm,-,N/A,,Partly Cloudy,0,2013-05-02 00:56:00
9:56 PM,48.0,39.9,74,30.47,10.0,Calm,Calm,-,N/A,,Partly Cloudy,0,2013-05-02 01:56:00
10:56 PM,46.9,39.9,77,30.47,10.0,Calm,Calm,-,N/A,,Clear,0,2013-05-02 02:56:00
11:56 PM,46.0,39.0,76,30.46,10.0,NNW,3.5,-,N/A,,Clear,330,2013-05-02 03:56:00